Location: Miles
(41.4492°N, 81.6087°W)
Time: 08:19:20
(UTC+00:00)

Transit 2A - Pass Details

Date: 19 September 2024
Orbit: 590 x 960 km, 66.7° (Epoch: 09 October)

Event Time Altitude Azimuth Distance (km) Brightness Sun altitude
Rises 09:19:03 0° 317° (NW) 3,598 9.3 -21.3°
Enters shadow 09:19:21 - 316° (NW) 3,499 9.2 -21.3°
Reaches altitude 10° 09:22:14 10° 303° (WNW) 2,608 - -20.8°
Maximum altitude 09:26:38 21° 256° (WSW) 1,853 - -20.0°
Drops below altitude 10° 09:30:47 10° 209° (SSW) 2,435 - -19.3°
Sets 09:33:40 0° 193° (SSW) 3,294 - -18.8°
